Find Beijing-3C 01

NORAD ID: 59805 Int'l Des: 2024-094 Owner: 21AT Country: CN operational
LEOCIRCULARRETROGRADESSO

Current View

Loading 3D Globe...

About Beijing-3C 01

Beijing-3C 01 (NORAD 59805) is a satellite launched May 20, 2024 by 21AT of CN. It operates in LEO, CIRCULAR, RETROGRADE, SSO orbit with a mass of 1000.00 kg.

Upcoming Passes

Passes for default location (London). Set your location on the main map for personalized predictions.

Altitude History

Loading altitude history...

Two-Line Element Set

1 59805U 24094A 26195.60688152 .00003163 00000-0 16654-3 0 9993
2 59805 97.3861 265.7115 0003414 105.5792 254.5818 15.16327695119325
Epoch: Jul 14, 2026 • Age: 8 hours

Current Status

Altitude 528.2 km
Apogee / Perigee N/A
Velocity 7.61 km/s
Sub-Earth Point 82.25°N, 81.02°W
Launch Date May 20, 2024
Age 2.1 years
Type other

Technical Details

Classification Payload
Mass 1000.00 kg
Dry Mass 1000.00 kg
Total Mass 1000.00 kg
Length 1.00 m
Diameter 1.00 m
Span 5.00 m
Shape Hex cyl + 3 pan
Manufacturer DFHZ
Bus Type BJ3C
Phase Status In Orbit
Owner/State 21AT/CN

Most Searched